User: anonymous   Login
Location: Strawberry
(45.6646°N, 111.9596°W)
Time: 22:00:41
(UTC+00:00)
Language:

ISS - Orbit

View from above orbital plane
View from above orbital plane
View from above satellite
View from above satellite

Ground track
Ground track

The orbit data is extracted from the following two-line orbital elements,

1 25544U 98067A   22267.67446222  .00008468  00000-0  15481-3 0  9990
2 25544  51.6423 203.6907 0002317 289.8462 134.5749 15.50255177360619
Epoch (UTC): 24 September 2022 16:11:13
Eccentricity: 0.0002317
inclination: 51.6423°
perigee height: 414 km
apogee height: 417 km
right ascension of ascending node: 203.6907°
argument of perigee: 289.8462°
revolutions per day: 15.50255177
mean anomaly at epoch: 134.5749°
orbit number at epoch: 36061

The dashed part of the orbit path shows where the satellite is in the earth's shadow,  

DLR